Temp_Advection
nan nan nan nan nan nan nan nan nan nan nan nan nan nan nan nan nan nan nan nan nan nan nan nan nan nan nan
nan -0 -0 -0 0 -0 -0 -1 -0 -1 -1 -1 -1 -1 -1 -1 -1 -1 -1 -1 -1 -1 -1 -1 -1 -2 nan
nan -0 -0 -1 -0 -0 -0 -1 -1 -1 -1 -1 -1 -1 -1 -1 -1 -1 -1 -1 -1 -1 -1 -1 -1 -1 nan
nan -0 0 0 -1 -1 -0 -0 -0 -1 -1 -1 -1 -1 -1 -1 -1 -1 -1 -1 -1 -1 -1 -0 -1 -1 nan
nan 0 -0 -0 0 -0 -0 -0 -0 -0 -1 -0 -0 -1 -1 -1 -1 -1 -1 -1 -1 -1 -1 -1 -0 -1 nan
nan 0 -0 -0 0 -0 -0 0 -0 -0 -0 -0 -1 -1 -0 -1 -1 -1 -1 -1 -1 -1 -1 -1 -1 -1 nan
nan 0 -0 -1 -0 0 0 -0 -0 -0 -0 -0 -0 -1 -1 -1 -1 -1 -1 -1 -1 -1 -1 -1 -1 -1 nan
nan -0 -0 0 0 -0 -0 -0 -0 -0 0 -0 0 -1 -1 -0 -0 -0 -1 -0 -1 -2 -1 -0 -0 0 nan
nan 0 -0 -0 -0 -0 -0 -0 -0 -1 1 0 -1 -0 -1 -2 -1 0 0 -0 -0 -0 -1 -1 -1 -1 nan
nan -1 -0 -0 -0 -0 -0 -0 -1 -2 0 2 -0 -1 -1 -1 -1 -0 0 0 -0 -0 -0 -1 -1 -1 nan
nan -1 -1 -0 -0 -0 0 1 0 -2 -1 1 0 0 -0 -1 -1 -1 0 1 -0 -1 -0 -0 -0 -1 nan
nan -0 -0 -0 -0 0 0 0 1 0 -1 0 1 0 -0 -1 -1 -1 -0 0 0 0 0 -0 -1 -1 nan
nan -0 -0 -0 -0 -0 -0 0 0 0 0 -0 -0 0 0 -0 -1 -1 -1 -1 0 0 -0 -0 -0 -1 nan
nan -0 0 0 0 -0 -0 -0 -0 -0 0 0 0 0 -0 -0 -0 -0 0 -0 -0 0 0 0 -0 -0 nan
nan 0 0 0 0 0 -0 -0 -0 -1 -0 0 0 0 0 0 0 0 0 0 0 0 0 1 1 1 nan
nan 0 0 0 -0 -0 0 -0 0 0 0 0 0 0 -0 -0 0 0 1 1 0 0 0 1 0 1 nan
nan nan nan nan nan nan nan nan nan nan nan nan nan nan nan nan nan nan nan nan nan nan nan nan nan nan nan
Wind_Speed
47 48 49 50 51 48 44 42 39 36 34 38 42 43 47 44 42 40 41 42 42 41 42 40 37 38 36
48 48 47 51 46 46 43 40 40 37 43 43 47 46 40 41 41 40 39 38 38 38 39 37 39 35 30
42 46 46 41 40 44 44 43 43 42 40 43 41 38 34 37 42 39 38 37 36 37 36 33 33 35 32
43 39 38 38 40 46 48 41 45 44 42 39 32 30 41 37 36 35 34 35 33 33 35 33 33 34 30
36 38 40 45 44 43 44 47 49 41 35 37 42 45 44 38 34 31 32 33 35 35 32 31 31 32 32
40 40 44 44 43 46 43 38 47 39 35 49 40 44 41 40 33 35 40 37 36 35 32 31 34 33 34
39 41 42 45 45 41 45 43 43 46 42 48 39 44 43 41 37 36 36 37 37 37 37 36 36 34 33
37 39 41 40 45 42 41 46 45 42 35 43 42 45 45 43 36 35 35 34 32 31 30 29 29 35 34
35 35 39 36 33 37 40 40 40 40 43 40 43 46 44 43 37 21 23 28 29 32 32 32 33 36 38
43 42 36 37 32 32 37 38 39 41 39 38 40 40 32 33 26 34 35 35 31 32 32 33 33 34 38
37 40 39 38 38 34 32 35 40 41 36 34 38 38 30 33 36 36 39 37 32 25 21 23 27 32 39
38 37 39 40 36 32 30 29 29 33 31 24 27 27 30 31 33 36 33 23 19 21 17 12 16 25 34
37 39 38 36 34 33 31 30 30 29 26 26 28 27 30 25 28 32 32 29 18 18 11 8 10 12 22
38 38 36 36 34 33 33 33 34 38 29 27 27 21 21 12 16 26 24 19 20 10 12 10 2 11 15
36 37 36 36 35 32 32 33 33 34 32 29 24 14 8 7 19 22 18 14 11 12 23 27 23 15 6
35 36 36 35 35 34 32 33 31 30 26 24 26 19 12 10 19 21 13 19 20 22 27 30 34 35 28
37 36 34 35 35 34 32 29 29 25 22 21 22 21 18 18 24 18 16 26 31 35 37 37 39 39 37
Wind_Direction
303 309 312 312 311 312 309 307 302 298 298 298 295 292 296 292 288 286 284 282 280 279 277 279 276 270 262
301 307 304 310 303 312 308 307 303 299 298 296 294 293 291 288 287 285 285 284 281 280 276 280 280 283 269
299 302 299 308 308 308 305 303 299 298 298 300 296 291 290 292 290 286 283 283 281 277 279 277 278 274 269
299 302 305 311 310 308 306 304 303 303 301 302 294 291 294 293 289 285 282 281 277 277 274 272 274 267 271
299 311 313 312 310 308 303 305 305 305 306 300 300 300 303 302 293 288 289 282 284 279 270 273 273 270 267
312 310 308 308 306 303 299 309 306 307 306 300 303 303 302 300 293 288 289 283 279 276 281 271 272 268 266
305 304 304 305 308 312 309 303 300 302 306 300 302 297 300 300 294 293 287 283 278 277 273 269 270 262 261
308 304 306 308 306 304 302 301 302 302 301 293 299 295 305 304 300 296 289 288 282 277 266 264 257 258 260
308 307 307 307 306 306 306 306 302 302 308 294 298 299 302 306 312 303 288 291 291 286 280 271 266 261 258
313 315 318 322 315 311 309 303 301 301 315 300 301 304 301 303 303 305 305 302 291 286 279 271 262 256 253
321 326 324 321 322 324 322 315 303 298 322 309 305 307 300 300 304 307 311 308 303 298 287 268 255 248 248
323 320 322 325 330 332 334 332 332 323 328 316 309 309 311 302 302 316 326 325 320 323 315 294 263 249 242
321 322 325 332 335 338 339 341 337 340 333 335 319 314 307 297 298 320 332 335 340 342 329 316 290 258 240
326 332 337 339 338 341 339 341 338 337 346 346 336 319 305 303 314 330 337 329 345 6 46 64 219 265 240
336 339 340 342 343 346 346 344 336 331 347 357 358 345 347 315 340 351 348 6 28 55 68 65 75 80 189
344 344 343 346 345 347 350 344 338 344 354 1 9 25 34 33 23 2 30 53 62 72 70 70 71 68 83
346 347 349 351 350 352 352 352 349 355 4 7 13 17 31 22 38 29 63 76 76 75 71 69 67 75 80
Height
1365 1360 1355 1350 1345 1341 1338 1333 1328 1324 1321 1316 1311 1306 1301 1295 1291 1287 1284 1281 1278 1275 1273 1270 1266 1263 1262
1357 1352 1348 1342 1336 1331 1327 1323 1319 1314 1311 1304 1298 1292 1286 1282 1278 1274 1269 1267 1264 1262 1259 1257 1254 1250 1249
1351 1346 1339 1336 1328 1323 1317 1311 1307 1302 1297 1292 1286 1279 1274 1269 1265 1261 1257 1254 1252 1250 1247 1245 1245 1243 1240
1346 1337 1333 1328 1323 1314 1303 1301 1293 1289 1284 1277 1273 1268 1264 1258 1253 1249 1245 1242 1240 1238 1236 1234 1233 1231 1230
1337 1330 1324 1318 1313 1305 1297 1288 1279 1278 1271 1265 1262 1256 1249 1245 1240 1237 1234 1230 1228 1225 1223 1222 1222 1220 1219
1331 1324 1317 1311 1304 1296 1287 1281 1268 1272 1263 1251 1253 1242 1238 1234 1230 1227 1222 1218 1215 1213 1210 1209 1209 1209 1209
1325 1319 1310 1304 1296 1289 1282 1275 1267 1258 1256 1239 1241 1231 1227 1221 1217 1212 1208 1203 1200 1198 1197 1196 1196 1195 1196
1319 1311 1305 1298 1292 1284 1274 1265 1258 1252 1249 1234 1229 1220 1215 1209 1204 1199 1193 1190 1186 1184 1183 1182 1181 1181 1182
1310 1304 1297 1290 1284 1274 1266 1258 1248 1242 1236 1228 1219 1210 1205 1197 1191 1187 1184 1181 1176 1172 1170 1169 1168 1168 1168
1299 1292 1286 1279 1274 1268 1260 1251 1243 1233 1226 1221 1211 1206 1194 1188 1183 1180 1174 1169 1164 1160 1156 1154 1154 1155 1155
1291 1284 1277 1271 1265 1258 1252 1245 1236 1227 1218 1214 1205 1199 1194 1182 1174 1170 1165 1158 1152 1147 1144 1141 1140 1141 1141
1285 1279 1271 1263 1256 1249 1243 1236 1230 1221 1212 1208 1201 1195 1188 1179 1171 1163 1157 1150 1145 1140 1135 1131 1129 1128 1129
1281 1273 1266 1258 1250 1242 1236 1229 1222 1215 1208 1202 1196 1188 1183 1176 1170 1162 1153 1145 1141 1134 1130 1126 1123 1121 1120
1276 1268 1260 1252 1245 1239 1231 1224 1216 1208 1203 1196 1189 1182 1175 1173 1169 1160 1154 1148 1140 1135 1130 1124 1119 1116 1115
1271 1263 1255 1248 1241 1235 1228 1221 1214 1207 1198 1191 1184 1178 1174 1172 1167 1160 1154 1149 1144 1138 1132 1126 1119 1115 1113
1267 1260 1253 1245 1238 1231 1225 1219 1213 1206 1199 1193 1186 1179 1176 1173 1169 1163 1158 1153 1148 1143 1137 1131 1126 1120 1115
1264 1258 1251 1243 1236 1229 1223 1218 1212 1206 1200 1195 1190 1185 1180 1176 1172 1169 1164 1159 1155 1150 1146 1141 1137 1132 1128